Regional Weather Roundup
Issued by NWS

Home | Current Version | Previous Version | Graphics & Text | Print | Product List | Glossary On
Versions: 1 2 3 4 5 6 7 8 9 10 11 12 13 14 15 16 17 18 19 20 21 22 23 24 25 26 27 28 29 30 31 32 33 34 35 36 37 38 39 40 41 42 43 44 45 46 47 48 49 50
000
ASUS44 KMEG 101500
RWRTN
TENNESSEE HOURLY STATE WEATHER ROUNDUP
NATIONAL WEATHER SERVICE MEMPHIS TN
900 AM CST WED FEB 10 2016

TNZ002-004-019-021-049-052-054-088>092-101600-
WEST TENNESSEE

CITY           SKY/WX    TMP DP  RH WIND       PRES   REMARKS
MEMPHIS INTL   SUNNY     29   9  43 NW12      30.29S WCI  19
NWS MEMPHIS      N/A     26 N/A N/A MISG        N/A
JACKSON        SUNNY     24   9  52 NW10      30.26R WCI  14
DYERSBURG      SUNNY     23   9  54 NW13      30.30R WCI  11
UNION CITY     SUNNY     19   9  63 W12       30.25R WCI   7
PARIS          SUNNY     19   7  58 NW7       30.22R WCI  10
$$

TNZ008-025-027-028-033-062-065-066-101600-
NORTH MIDDLE TENNESSEE

CITY           SKY/WX    TMP DP  RH WIND       PRES   REMARKS
NASHVILLE      MOSUNNY   22   8  55 W10G17    30.20R WCI  11
CLARKSVILLE    SUNNY     18   9  68 NW13      30.21R WCI   5
COOKEVILLE     SUNNY     19   9  63 NW10      30.12R WCI   8
CROSSVILLE     CLOUDY    16   7  67 W16G24    30.04R WCI   1
$$

TNZ061-075-076-078-094-096-097-101600-
SOUTH MIDDLE TENNESSEE

CITY           SKY/WX    TMP DP  RH WIND       PRES   REMARKS
TULLAHOMA      PTSUNNY   21   9  58 W14       30.14S WCI   8
WINCHESTER     PTSUNNY   21  10  63 NW12      30.15R WCI   9
MCMINNVILLE    PTSUNNY   18   9  68 NW10      30.14R WCI   6
COLUMBIA       SUNNY     23  16  74 NW9       30.18R WCI  13
SHELBYVILLE    CLOUDY    21  16  79 N8        30.18R WCI  12
$$

TNZ017-018-042-046-047-101600-
NORTHEAST TENNESSEE

CITY           SKY/WX    TMP DP  RH WIND       PRES   REMARKS
TRI CITIES     CLOUDY    19   8  62 W15       29.99S WCI   5
$$

TNZ012-013-036-069-073-074-101600-
CENTRAL EAST TENNESSEE

CITY           SKY/WX    TMP DP  RH WIND       PRES   REMARKS
KNOXVILLE      PTSUNNY   21   7  54 W18G25    30.10R WCI   6
OAK RIDGE      MOSUNNY   23   6  48 W16G29    30.11R WCI  10
GATLINBURG     CLOUDY    19   7  58 W12       30.07S WCI   7
$$

TNZ083-085-099-101600-
SOUTHEAST TENNESSEE

CITY           SKY/WX    TMP DP  RH WIND       PRES   REMARKS
CHATTANOOGA    PTSUNNY   25   9  50 W8        30.16R WCI  16
$$

SKY/WX REPORTED AS FAIR MEANS FEW OR NO CLOUDS BELOW
12 THOUSAND FEET.




USA.gov is the U.S. government's official web portal to all federal, state and local government web resources and services.